FW6015 Weather Reports


Display with metric or nautical units.
time (UTC)temp
F
wind
direction
speed
MPH
gust
MPH
rain 1hr
in
rain 24hr
in
rain mn
in
humidity
%
barometer
mb
20201022094021 59 0.0 0.0 0.00 0.00 0.00 97 1024.7
20201022093021 59 0.0 0.0 0.00 0.00 0.00 97 1024.7
20201022092023 59 0.0 0.0 0.00 0.00 0.00 97 1024.6
20201022091020 59 0.0 0.0 0.00 0.00 0.00 97 1024.6
20201022090024 59 0.0 0.0 0.00 0.00 0.00 97 1024.5
20201022085022 59 0.0 0.0 0.00 0.00 0.00 97 1024.5
20201022084024 59 0.0 0.0 0.00 0.00 0.00 97 1024.5
20201022083037 59 0.0 0.0 0.00 0.00 0.00 97 1024.5
20201022082029 59 0.0 0.0 0.00 0.00 0.00 96 1024.5
20201022081021 59 0.0 0.0 0.00 0.00 0.00 96 1024.5
20201022080022 59 1 0.0 2.0 0.00 0.00 0.00 96 1024.6
20201022075021 59 0.0 0.0 0.00 0.00 0.00 96 1024.7
20201022074029 60 0.0 0.0 0.00 0.00 0.00 96 1024.7
20201022073021 60 0.0 0.0 0.00 0.00 0.00 96 1024.8
20201022072021 60 0.0 0.0 0.00 0.00 0.00 96 1024.8
20201022071031 60 0.0 0.0 0.00 0.00 0.00 96 1024.8
20201022070052 60 0.0 0.0 0.00 0.00 0.00 96 1024.9
20201022065030 60 0.0 0.0 0.00 0.00 0.00 96 1024.9
20201022064020 60 0.0 0.0 0.00 0.00 0.00 96 1024.9
20201022063021 61 0.0 0.0 0.00 0.00 0.00 95 1024.9
20201022062024 61 0.0 0.0 0.00 0.00 0.00 95 1024.9
20201022061022 61 0.0 0.0 0.00 0.00 0.00 95 1024.8
20201022060033 61 0.0 0.0 0.00 0.00 0.00 95 1024.7
20201022055028 61 0.0 0.0 0.00 0.00 0.00 95 1024.7
20201022054021 61 0.0 0.0 0.00 0.00 0.00 94 1024.9
20201022053039 62 0.0 0.0 0.00 0.00 0.00 94 1024.9
20201022052027 62 0.0 0.0 0.00 0.00 0.00 94 1024.9
20201022051031 62 0.0 0.0 0.00 0.00 0.00 94 1024.9
20201022050025 63 0.0 0.0 0.00 0.00 0.00 94 1025.0
20201022045021 63 0.0 0.0 0.00 0.00 0.00 93 1025.0
20201022044024 63 0.0 0.0 0.00 0.00 0.00 93 1025.1
20201022043053 64 0.0 0.0 0.00 0.00 0.00 93 1025.2
20201022042026 64 0.0 0.0 0.00 0.00 0.00 93 1025.1
20201022041025 64 0.0 0.0 0.00 0.00 0.00 93 1025.1
20201022040043 64 0.0 0.0 0.00 0.00 0.00 93 1025.2
20201022035021 65 0.0 0.0 0.00 0.00 0.00 93 1025.3
20201022034022 64 0.0 0.0 0.00 0.00 0.00 93 1025.3
20201022033030 64 0.0 0.0 0.00 0.00 0.00 93 1025.3
20201022032029 65 0.0 0.0 0.00 0.00 0.00 92 1025.4
20201022031021 65 0.0 0.0 0.00 0.00 0.00 92 1025.3
20201022030037 65 0.0 0.0 0.00 0.00 0.00 91 1025.3
20201022025021 66 0.0 0.0 0.00 0.00 0.00 91 1025.3
20201022024033 66 0.0 0.0 0.00 0.00 0.00 91 1025.3
20201022023028 66 0.0 0.0 0.00 0.00 0.00 91 1025.3
20201022022022 66 0.0 0.0 0.00 0.00 0.00 90 1025.4
20201022021024 67 0.0 0.0 0.00 0.00 0.00 89 1025.3
20201022020026 67 0.0 0.0 0.00 0.00 0.00 88 1025.4
20201022015035 67 0.0 0.0 0.00 0.00 0.00 89 1025.4
20201022014021 67 0.0 0.0 0.00 0.00 0.00 89 1025.3
20201022013030 67 0.0 0.0 0.00 0.00 0.00 89 1025.3
20201022012022 68 0.0 0.0 0.00 0.00 0.00 89 1025.2
20201022011024 68 0.0 0.0 0.00 0.00 0.00 89 1025.2
20201022010022 68 0.0 0.0 0.00 0.00 0.00 88 1025.1
20201022005026 68 0.0 0.0 0.00 0.00 0.00 88 1025.2
20201022004031 69 0.0 0.0 0.00 0.00 0.00 87 1025.1
20201022003027 69 0.0 0.0 0.00 0.00 0.00 86 1025.1
20201022002028 69 0.0 0.0 0.00 0.00 0.00 86 1025.0
20201022001034 69 0.0 0.0 0.00 0.00 0.00 86 1025.1
20201022000035 70 0.0 0.0 0.00 0.00 0.00 85 1025.0
20201021235021 70 0.0 0.0 0.00 0.00 0.00 84 1024.9
20201021234029 71 0.0 0.0 0.00 0.00 0.00 83 1024.9
20201021233022 71 0.0 0.0 0.00 0.00 0.00 82 1024.8
20201021232024 71 0.0 0.0 0.00 0.00 0.00 81 1024.7
20201021231028 72 0.0 0.0 0.00 0.00 0.00 80 1024.6
20201021230036 72 0.0 0.0 0.00 0.00 0.00 79 1024.6
20201021225051 73 0.0 0.0 0.00 0.00 0.00 77 1024.6
20201021224030 74 0.0 0.0 0.00 0.00 0.00 76 1024.5
20201021223039 75 0.0 0.0 0.00 0.00 0.00 73 1024.4
20201021222031 76 0.0 0.0 0.00 0.00 0.00 71 1024.3
20201021221031 76 142 0.0 2.0 0.00 0.00 0.00 69 1024.3
20201021220046 77 173 0.0 2.0 0.00 0.00 0.00 67 1024.3
20201021215026 77 103 0.0 4.0 0.00 0.00 0.00 65 1024.2
20201021214021 78 188 0.0 1.0 0.00 0.00 0.00 64 1024.1
20201021213034 78 0.0 0.0 0.00 0.00 0.00 64 1024.1
20201021212032 78 0.0 2.0 0.00 0.00 0.00 63 1024.1
20201021211023 79 146 0.0 2.0 0.00 0.00 0.00 62 1024.0
20201021210035 79 0.0 1.0 0.00 0.00 0.00 62 1024.1
20201021205023 79 182 1.0 2.0 0.00 0.00 0.00 62 1024.1
20201021204022 80 173 1.0 3.0 0.00 0.00 0.00 63 1024.1
20201021203026 80 159 1.0 3.0 0.00 0.00 0.00 63 1024.1
20201021202024 80 148 1.0 2.0 0.00 0.00 0.00 63 1024.2
20201021201025 80 170 2.0 5.0 0.00 0.00 0.00 62 1024.2
20201021200038 81 115 1.0 3.0 0.00 0.00 0.00 61 1024.2
20201021195022 81 113 1.0 3.0 0.00 0.00 0.00 60 1024.3
20201021194023 81 85 0.0 3.0 0.00 0.00 0.00 62 1024.3
20201021193024 81 95 1.0 3.0 0.00 0.00 0.00 61 1024.4
20201021192038 81 132 1.0 2.0 0.00 0.00 0.00 61 1024.4
20201021191022 80 262 2.0 3.0 0.00 0.00 0.00 61 1024.5
20201021190026 83 123 1.0 3.0 0.00 0.00 0.00 60 1024.6
20201021185022 82 161 1.0 3.0 0.00 0.00 0.00 60 1024.7
20201021184022 80 147 1.0 4.0 0.00 0.00 0.00 63 1024.9
20201021183022 82 159 0.0 2.0 0.00 0.00 0.00 60 1025.0
20201021182023 82 209 1.0 3.0 0.00 0.00 0.00 59 1025.2
20201021181035 82 161 2.0 4.0 0.00 0.00 0.00 61 1025.3
20201021180028 79 242 2.0 3.0 0.00 0.00 0.00 66 1025.4
20201021175030 81 152 3.0 5.0 0.00 0.00 0.00 65 1025.6
20201021174025 81 186 1.0 2.0 0.00 0.00 0.00 66 1025.7
20201021173027 79 179 1.0 4.0 0.00 0.00 0.00 70 1025.9
20201021172022 78 171 1.0 4.0 0.00 0.00 0.00 71 1026.1
20201021171030 80 157 1.0 3.0 0.00 0.00 0.00 70 1026.2
20201021170036 79 141 2.0 3.0 0.00 0.00 0.00 71 1026.4
20201021165022 78 174 1.0 3.0 0.00 0.00 0.00 71 1026.6
20201021164022 78 157 2.0 4.0 0.00 0.00 0.00 71 1026.7
20201021163026 77 139 1.0 4.0 0.00 0.00 0.00 72 1026.8
20201021162027 77 187 2.0 3.0 0.00 0.00 0.00 73 1026.9
20201021161023 76 191 1.0 2.0 0.00 0.00 0.00 76 1027.0
20201021160025 76 177 1.0 3.0 0.00 0.00 0.00 76 1027.1
20201021155023 76 121 1.0 3.0 0.00 0.00 0.00 78 1027.1
20201021154021 75 169 1.0 3.0 0.00 0.00 0.00 80 1027.1
20201021153033 74 99 1.0 3.0 0.00 0.00 0.00 80 1027.2
20201021152027 74 187 0.0 2.0 0.00 0.00 0.00 81 1027.1
20201021151022 73 156 2.0 4.0 0.00 0.00 0.00 83 1027.1
20201021150024 72 171 2.0 4.0 0.00 0.00 0.00 85 1027.3
20201021145022 72 132 0.0 3.0 0.00 0.00 0.00 84 1027.3
20201021144022 72 0.0 0.0 0.00 0.00 0.00 82 1027.3
20201021143024 72 108 1.0 3.0 0.00 0.00 0.00 83 1027.4
20201021142026 71 102 0.0 2.0 0.00 0.00 0.00 84 1027.6
20201021141022 68 157 1.0 3.0 0.00 0.00 0.00 89 1027.5
20201021140023 66 38 0.0 1.0 0.00 0.00 0.00 89 1027.5
20201021135022 65 110 0.0 2.0 0.00 0.00 0.00 89 1027.5
20201021134023 64 13 1.0 2.0 0.00 0.00 0.00 91 1027.5
20201021133025 64 20 0.0 1.0 0.00 0.00 0.00 92 1027.5
20201021132024 63 8 1.0 3.0 0.00 0.00 0.00 93 1027.4
20201021131022 63 355 0.0 2.0 0.00 0.00 0.00 94 1027.3
20201021130026 63 0.0 0.0 0.00 0.00 0.00 94 1027.2
20201021125033 63 0.0 0.0 0.00 0.00 0.00 94 1027.1
20201021124038 62 0.0 0.0 0.00 0.00 0.00 95 1027.0
20201021123025 62 0.0 0.0 0.00 0.00 0.00 95 1027.0
20201021122024 62 0.0 0.0 0.00 0.00 0.00 95 1026.8
20201021121022 62 0.0 0.0 0.00 0.00 0.00 95 1026.8
20201021120033 62 0.0 0.0 0.00 0.00 0.00 95 1026.7
20201021115023 62 0.0 0.0 0.00 0.00 0.00 95 1026.6
20201021114022 62 8 0.0 2.0 0.00 0.00 0.00 95 1026.5
20201021113023 61 0.0 0.0 0.00 0.00 0.00 95 1026.4
20201021112023 61 17 2.0 3.0 0.00 0.00 0.00 96 1026.3
20201021111027 61 342 1.0 3.0 0.00 0.00 0.00 96 1026.2
20201021110031 61 347 0.0 2.0 0.00 0.00 0.00 96 1026.0
20201021105034 61 0.0 1.0 0.00 0.00 0.00 97 1025.8
20201021104028 61 27 1.0 2.0 0.00 0.00 0.00 97 1025.8
20201021103023 61 331 1.0 2.0 0.00 0.00 0.00 97 1025.7
20201021102022 61 0.0 0.0 0.00 0.00 0.00 97 1025.4
20201021101044 61 0.0 0.0 0.00 0.00 0.00 97 1025.4
20201021100025 61 0.0 0.0 0.00 0.00 0.00 97 1025.3
20201021095023 61 0.0 0.0 0.00 0.00 0.00 97 1025.2